TIME,DELAY(SENSOR),PRES,OXYGEN,RAWTEMP,T(OPTODE),TCPHASE,FLUOR,BETA(BETA700),BETA(BETA412),BETA(BETA440),CDOM,C(CSC),ED(ED411.90),ED(ED443.80),ED(ED489.40),ED(ED554.70),LU(LU412.20),LU(LU443.80),LU(LU489.40),LU(LU555.00),COMP,TILTX,TILTY,CHECK
1362694490,5806,860.1500244140625000,173.1555938720703000,463.3721008300781000,8.6615705490112300,39.0465698242187500,73,432,96,79,80,11620,2146960329,2147514953,2147292141,2147508598,2147088073,2146926473,2147714468,2147118729,2524,-1,9,23959
1362698086,5804,962.0599975585938000,233.4344940185547000,547.2869873046875000,6.0545687675476070,36.8337707519531250,73,438,98,78,81,11616,2146960859,2147517778,2147299629,2147521645,2147090953,2146921280,2147727323,2147117851,2837,-1,8,33488
1362701686,5805,988.4699707031250000,253.6096038818359400,558.0413208007812000,5.7167840003967285,36.0105285644531250,73,446,98,78,80,11610,2146960448,2147516370,2147298605,2147523739,2147091638,2146921563,2147726592,2147121371,2545,-1,8,7332
1362705286,5804,995.8400268554688000,254.6445007324218800,558.5808105468750000,5.6998119354248050,35.9702491760253900,73,447,97,79,80,11613,2146962258,2147516854,2147295835,2147522761,2147086061,2146916470,2147728054,2147121033,2904,-1,8,37284
1362708886,5805,992.0100097656250000,254.6614074707031200,560.7573852539062000,5.6313209533691410,36.0097007751464840,73,434,98,78,81,11610,2146962358,2147519085,2147298752,2147522029,2147087917,2146915913,2147730624,2147120182,3383,0,8,53169
1362712486,5807,1004.1699829101562000,258.1794128417969000,563.9581298828125000,5.5305399894714355,35.9000587463378900,73,437,97,79,80,11602,2146964452,2147518582,2147300077,2147524470,2147090304,2146918464,2147729526,2147120265,51,0,8,61316
1362716086,5805,1012.5200195312500000,258.2862854003906000,561.3311767578125000,5.6132621765136720,35.8467903137207000,71,438,98,78,81,11607,2146964041,2147520713,2147299565,2147522651,2147091154,2146913508,2147729682,2147119661,3057,0,8,25316
1362719686,5806,1009.6300048828125000,257.0397949218750000,562.0518188476562000,5.5905761718750000,35.9190788269043000,72,435,98,79,81,11605,2146961874,2147518774,2147299849,2147523648,2147089088,2146914971,2147728603,2147115757,3409,-1,8,7395
1362723286,5805,1008.3099975585938000,256.8182983398437500,562.1834716796875000,5.5864281654357910,35.9322319030761700,72,435,98,78,80,11602,2146960027,2147519104,2147300187,2147524763,2147091044,2146919104,2147729984,2147119332,3557,-1,8,54346
1362726886,5808,1012.0599975585938000,257.7161865234375000,562.3405151367188000,5.5814862251281740,35.8923606872558600,71,437,99,79,80,11599,2146961682,2147518546,2147303332,2147524571,2147087442,2146917586,2147730715,2147120210,69,0,8,56456
1362730486,5805,1013.6199951171875000,258.3400878906250000,561.9146118164062000,5.5948958396911620,35.8546218872070300,72,436,98,80,80,11601,2146962057,2147518546,2147300306,2147520173,2147090404,2146921243,2147730523,2147117348,3199,-1,8,11186
1362734086,5806,1009.9099731445312000,261.1473999023437500,564.8103027343750000,5.5036911964416500,35.7757110595703100,72,436,98,79,80,11598,2146964772,2147519533,2147299062,2147526153,2147089179,2146918290,2147731620,2147115776,2329,0,8,6105
1362737686,5805,1012.7500000000000000,258.8570861816406000,562.7141723632812000,5.5697169303894040,35.8448104858398440,72,439,97,79,80,11598,2146964397,2147517156,2147301741,2147524617,2147088960,2146919890,2147727917,2147117897,3142,-1,8,36438
1362741286,5805,1012.3900146484375000,259.2702941894531000,563.0802001953125000,5.5581908226013180,35.8318710327148440,71,460,99,80,80,11597,2146959094,2147520045,2147301330,2147524425,2147089837,2146918628,2147729289,2147119040,3016,-1,8,57996
1362744886,5808,1013.3900146484375000,259.2290954589844000,564.8170166015625000,5.5034790039062500,35.8656196594238300,71,444,97,77,81,11583,2146964891,2147517796,2147300909,2147522578,2147089033,2146915181,2147728868,2147121289,592,-1,8,1203
1362748486,5808,1012.7700195312500000,261.2190856933594000,564.8773803710938000,5.5015769004821780,35.7732582092285160,73,444,99,79,81,11580,2146960246,2147521600,2147299008,2147523090,2147088731,2146916717,2147731099,2147119021,2776,-1,8,3623
1362752086,5807,1014.2199707031250000,260.3717956542969000,565.3809204101562000,5.4857101440429690,35.8219985961914060,74,445,97,79,80,11577,2146965348,2147519908,2147298377,2147529252,2147088603,2146919085,2147728438,2147121170,312,-1,8,4588
1362755686,5804,1018.4799804687500000,260.7450866699219000,564.1204833984375000,5.5254249572753910,35.7819709777832000,72,450,97,79,80,11574,2146964708,2147520265,2147300397,2147525449,2147088429,2146915794,2147727954,2147116955,2785,-1,8,14090
1362759286,5806,1010.2000122070312000,262.1564941406250000,566.0554809570312000,5.4644532203674320,35.7508392333984400,73,449,99,79,80,11575,2146962166,2147521051,2147299035,2147524489,2147089709,2146915602,2147732004,2147117961,3271,-1,8,31153
1362762886,5807,1011.8699951171875000,261.0819091796875000,567.0496215820312000,5.4331130981445310,35.8196907043457000,73,455,97,79,80,11545,2146963309,2147519634,2147301961,2147522861,2147090322,2146914971,2147730642,2147119826,3400,-1,8,53102
1362766486,5805,1021.9199829101562000,261.4006958007812500,564.5280761718750000,5.5125851631164550,35.7586517333984400,72,451,99,78,80,11527,2146963648,2147517101,2147300617,2147529956,2147087113,2146918034,2147730029,2147120192,2933,-1,8,49148
1362770086,5803,1022.6300048828125000,259.9018859863281000,563.2354736328125000,5.5533008575439450,35.8051490783691400,72,452,98,80,81,11526,2146964763,2147521737,2147300891,2147522971,2147086372,2146915794,2147728073,2147118838,3347,0,8,17284
1362773686,5808,1014.0999755859375000,259.6160888671875000,564.1956787109375000,5.5230522155761720,35.8360404968261700,72,454,97,78,80,11522,2146965202,2147518683,2147303323,2147524653,2147088384,2146912548,2147729197,2147122980,15,0,8,11586
1362777286,5807,1019.2700195312500000,259.5011901855469000,565.1718750000000000,5.4922981262207030,35.8594703674316400,72,454,98,79,80,11523,2146961938,2147519652,2147302418,2147522624,2147092059,2146920118,2147731300,2147120914,29,0,8,20401
1362780886,5806,1013.8900146484375000,260.5433959960937500,565.5693969726562000,5.4797711372375490,35.8178901672363300,73,446,98,79,81,11519,2146964150,2147517970,2147301741,2147523437,2147089033,2146916141,2147733522,2147121993,3243,-1,8,41770
1362784486,5803,1018.1799926757812000,262.8026123046875000,565.9979858398438000,5.4662652015686035,35.7201995849609400,73,455,99,78,79,11521,2146962112,2147516489,2147302628,2147524900,2147089270,2146913206,2147730660,2147118400,2905,0,8,40646
1362788086,5807,1022.3699951171875000,261.8688964843750000,564.9652099609375000,5.4988098144531250,35.7448692321777340,72,460,98,79,80,11517,2146965796,2147519433,2147301750,2147524672,2147085723,2146911606,2147732333,2147119149,370,0,8,47575
1362791686,5804,1021.6199951171875000,259.5114135742187500,564.4749145507812000,5.5142588615417480,35.8458900451660160,71,450,99,79,80,11515,2146961106,2147521792,2147301394,2147524370,2147091986,2146918692,2147732406,2147120905,3564,0,8,3639
1362795286,5807,1019.0900268554688000,260.0649108886719000,565.4340209960938000,5.4840388298034670,35.8378791809082000,72,444,99,78,79,11513,2146964086,2147518765,2147302528,2147525193,2147085677,2146918253,2147730953,2147120219,221,-1,8,46891
1362798886,5806,1011.4400024414062000,263.6458129882812500,568.3723144531250000,5.3914089202880860,35.7245292663574200,72,446,98,79,80,11511,2146960960,2147518921,2147301229,2147524827,2147089225,2146917019,2147732370,2147121078,3413,-1,8,14544
1362802486,5804,1018.2700195312500000,265.8247985839844000,569.3621215820312000,5.3601861000061035,35.6415596008300800,71,454,99,79,80,11512,2146961417,2147517906,2147302445,2147521993,2147088100,2146914752,2147734217,2147119945,3216,-1,8,11206
1362806086,5806,1016.0200195312500000,264.5773010253906000,567.6721191406250000,5.4134879112243650,35.6682701110839840,73,451,98,78,80,11512,2146964032,2147521810,2147302454,2147525814,2147087853,2146914029,2147730688,2147121801,3313,-1,8,42223
1362809686,5807,1014.8499755859375000,265.1644897460937500,569.0988769531250000,5.3684902191162110,35.6676292419433600,72,453,98,79,80,11509,2146959817,2147521197,2147301412,2147527917,2147090916,2146924205,2147736704,2147119405,3198,0,8,49333
1362813286,5805,1018.6400146484375000,265.1093139648437500,568.9121093750000000,5.3743801116943360,35.6664314270019500,71,456,97,80,80,11511,2146962834,2147522112,2147299858,2147526116,2147091163,2146917723,2147731419,2147121773,3301,-1,8,25602
1362816886,5807,1016.6500244140625000,264.5870056152344000,569.0764770507812000,5.3691940307617190,35.6936988830566400,73,452,97,79,80,11511,2146960146,2147519561,2147303369,2147526573,2147087789,2146924160,2147731547,2147120466,3565,-1,8,54642
1362820486,5805,1019.4199829101562000,264.7897949218750000,567.9456176757812000,5.4048647880554200,35.6632804870605500,72,461,106,79,80,11510,2146963757,2147521051,2147300580,2147526857,2147089252,2146918692,2147730166,2147121929,3345,-1,8,57078
1362824086,5804,1020.0000000000000000,263.9671020507812500,567.4652709960938000,5.4200081825256350,35.6927413940429700,73,469,98,79,80,11506,2146958829,2147517485,2147302262,2147527616,2147088841,2146916946,2147733997,2147122752,3507,0,8,54885
1362827686,5806,1027.8800048828125000,261.1527099609375000,564.7687988281250000,5.5049991607666020,35.7745399475097660,73,505,98,79,81,11493,2146958646,2147517504,2147298770,2147525696,2147091264,2146915629,2147731785,2147117805,172,-1,8,26683
1362831286,5807,1023.7999877929688000,262.7149963378906000,566.6029052734375000,5.4471950531005860,35.7351493835449200,71,501,98,79,80,11501,2146963684,2147518125,2147303305,2147523565,2147090761,2146915995,2147732480,2147117348,20,0,8,29703
1362834886,5807,1022.1400146484375000,263.0474853515625000,566.5239257812500000,5.4496879577636720,35.7183494567871100,73,489,98,78,80,11500,2146963574,2147517376,2147301211,2147525385,2147092781,2146916854,2147730285,2147121691,164,0,8,12432
1362838486,5806,1015.9000244140625000,261.9610900878906000,566.4810180664062000,5.4510397911071780,35.7683715820312500,73,469,97,79,82,11501,2146965952,2147516708,2147302537,2147526966,2147089033,2146919936,2147733577,2147119259,454,0,8,11835
1362839754,5807,1026.5400390625000000,263.4945983886719000,566.6389160156250000,5.4460601806640625,35.6993598937988300,72,476,97,79,81,11560,2146960548,2147516077,2147302491,2147525778,2147088448,2146918180,2147730258,2147116672,244,-1,8,24679
